Location: Calmejanne
(44.7523°N, 1.9418°E)
Time: 08:17:38
(UTC+00:00)

Cosmos 909 Rocket - Pass Details

Date: 14 May 2026
Orbit: 989 x 2090 km, 65.9° (Epoch: 6 June)

Event Time Altitude Azimuth Distance (km) Brightness Sun altitude
Rises 20:49:02 0° 220° (SW) 3,798 7.0 -14.4°
Reaches altitude 10° 20:51:41 10° 223° (SW) 2,790 6.4 -14.8°
Maximum altitude 20:57:58 68° 306° (NW) 1,063 4.4 -15.5°
Drops below altitude 10° 21:04:25 10° 30° (NNE) 2,853 6.7 -16.3°
Sets 21:07:09 0° 33° (NNE) 3,891 7.4 -16.6°
